Flag for Germany Weather past 2 weeks in Waren (Müritz), Mecklenburg-Western Pomerania, Germany

Now
55 °F

Fog.


Feels Like: 55 °F
Forecast: 52 / 70 °F
Wind: 5 mph from East

Location: Laage

Current Time: Sep 20, 2014 at 2:33:30 AM

Latest Report: Sep 20, 2014 at 1:20 AM


Visibility: 2 mi

Pressure: 29.95 "Hg

Humidity: 94%

Dew point: 54 °F

Location of Waren (Müritz)Location

Historic Weather in Waren (Müritz) — Graph

°F

Waren (Müritz) temperature yesterday

Maximum temperature yesterday: 73 °F (at 3:20 PM)
Minimum temperature yesterday: 52 °F (at 6:20 AM)
Average temperature yesterday: 62 °F

Past Weeks' High & Low Weather Summary

 TemperatureHumidityPressure
High79 °F (Sep 6, 3:20 PM)100% (Sep 5, 5:20 AM)30.21 "Hg (Sep 5, 5:20 AM)
Low48 °F (Sep 11, 6:20 AM)45% (Sep 6, 3:20 PM)29.89 "Hg (Sep 6, 4:20 PM)
Average62 °F83%30.05 "Hg
* Reported Sep 5 1:20 AM — Sep 20 1:20 AM, Waren (Müritz), Weather by CustomWeather, © 2014

Note: Actual official high and low records may vary slightly from our data, if they occured in-between our weather recording intervals... More about our weather records

Advertising

Waren (Müritz) weather history for previous 24 hours

 ConditionsComfort  
Time TempWeatherWind HumidityBarometerVisibility
1:20 AM
Sep 20
55 °FFog.5 mph94%29.95 "Hg2 mi
12:20 AM57 °FCool.6 mph94%29.95 "HgN/A
11:20 PM
Sep 19
57 °FCool.6 mph88%29.95 "HgN/A
10:20 PM59 °FPassing clouds.6 mph88%29.95 "HgN/A
9:20 PM59 °FCool.6 mph88%29.95 "HgN/A
8:20 PM63 °FPassing clouds.8 mph83%29.95 "HgN/A
7:20 PM66 °FPassing clouds.5 mph68%29.92 "HgN/A
6:20 PM70 °FPassing clouds.7 mph60%29.92 "HgN/A
5:20 PM72 °FPassing clouds.6 mph57%29.92 "HgN/A
4:20 PM73 °FScattered clouds.6 mph53%29.92 "HgN/A
3:20 PM73 °FPassing clouds.8 mph53%29.92 "HgN/A
2:20 PM72 °FPassing clouds.6 mph57%29.92 "HgN/A
1:20 PM72 °FMild.6 mph57%29.95 "HgN/A
12:20 PM70 °FMild.7 mph60%29.95 "HgN/A
11:20 AM66 °FMild.8 mph68%29.95 "HgN/A
10:20 AM63 °FMild.6 mph77%29.95 "HgN/A
8:20 AM54 °FCool.6 mph94%29.95 "Hg4 mi
7:20 AM52 °FFog.6 mph94%29.95 "Hg3 mi
6:20 AM52 °FFog.5 mph100%29.95 "Hg4 mi
5:20 AM54 °FCool.6 mph94%29.95 "HgN/A
4:20 AM54 °FCool.6 mph94%29.95 "HgN/A
3:20 AM54 °FCool.5 mph94%29.95 "HgN/A
2:20 AM55 °FPassing clouds.7 mph94%29.95 "HgN/A
Weather by CustomWeather, © 2014

See weather overviewHow to use our weather pages